| time (UTC) | temp F | wind direction | speed MPH | gust MPH | rain 1hr in | rain 24hr in | rain mn in | humidity % | barometer mb |
| 20260510220054 | 68 | 54 | 6.0 | 11.0 | 0.00 | 0.01 | 0.00 | 27 | 1019.6 |
| 20260510214552 | 69 | 51 | 3.0 | 6.0 | 0.00 | 0.01 | 0.00 | 27 | 1019.6 |
| 20260510213052 | 70 | 61 | 6.0 | 12.0 | 0.00 | 0.01 | 0.00 | 26 | 1019.7 |
| 20260510211551 | 70 | 80 | 6.0 | 13.0 | 0.00 | 0.01 | 0.00 | 27 | 1019.7 |
| 20260510210053 | 70 | 57 | 7.0 | 14.0 | 0.00 | 0.01 | 0.00 | 27 | 1019.6 |
| 20260510204554 | 70 | 47 | 6.0 | 11.0 | 0.00 | 0.01 | 0.00 | 28 | 1019.4 |
| 20260510203050 | 70 | 5 | 4.0 | 12.0 | 0.00 | 0.01 | 0.00 | 28 | 1019.4 |
| 20260510201549 | 71 | 53 | 6.0 | 15.0 | 0.00 | 0.01 | 0.00 | 26 | 1019.6 |
| 20260510200049 | 71 | 30 | 4.0 | 12.0 | 0.00 | 0.01 | 0.00 | 26 | 1019.6 |
| 20260510194551 | 70 | 73 | 9.0 | 14.0 | 0.00 | 0.01 | 0.00 | 25 | 1019.6 |
| 20260510193051 | 70 | 75 | 6.0 | 15.0 | 0.00 | 0.01 | 0.00 | 28 | 1019.7 |
| 20260510191550 | 71 | 28 | 4.0 | 12.0 | 0.00 | 0.01 | 0.00 | 28 | 1019.7 |
| 20260510190046 | 70 | 55 | 7.0 | 12.0 | 0.00 | 0.01 | 0.00 | 27 | 1019.8 |
| 20260510184544 | 70 | 5 | 3.0 | 13.0 | 0.00 | 0.01 | 0.00 | 28 | 1019.9 |
| 20260510183045 | 70 | 79 | 7.0 | 13.0 | 0.00 | 0.01 | 0.00 | 31 | 1019.9 |
| 20260510181545 | 68 | 53 | 8.0 | 21.0 | 0.00 | 0.01 | 0.00 | 31 | 1019.9 |
| 20260510180037 | 68 | 44 | 6.0 | 15.0 | 0.00 | 0.01 | 0.00 | 35 | 1019.9 |
| 20260510174535 | 66 | 59 | 7.0 | 16.0 | 0.00 | 0.01 | 0.00 | 38 | 1020.1 |
| 20260510173031 | 64 | 58 | 8.0 | 13.0 | 0.00 | 0.01 | 0.00 | 37 | 1020.2 |
| 20260510171528 | 63 | 51 | 6.0 | 11.0 | 0.00 | 0.01 | 0.00 | 39 | 1020.4 |
| 20260510170025 | 62 | 67 | 6.0 | 12.0 | 0.00 | 0.01 | 0.00 | 40 | 1020.6 |
| 20260510164537 | 62 | 61 | 9.0 | 14.0 | 0.00 | 0.01 | 0.00 | 39 | 1020.2 |
| 20260510163020 | 61 | 66 | 8.0 | 13.0 | 0.00 | 0.01 | 0.00 | 42 | 1020.0 |
| 20260510161518 | 61 | 65 | 10.0 | 18.0 | 0.00 | 0.01 | 0.00 | 42 | 1019.9 |
| 20260510160017 | 60 | 90 | 9.0 | 14.0 | 0.00 | 0.01 | 0.00 | 45 | 1019.8 |
| 20260510154537 | 58 | 76 | 7.0 | 15.0 | 0.00 | 0.01 | 0.00 | 51 | 1019.6 |
| 20260510153020 | 58 | 78 | 8.0 | 14.0 | 0.00 | 0.01 | 0.00 | 54 | 1019.4 |
| 20260510151516 | 57 | 78 | 8.0 | 19.0 | 0.00 | 0.01 | 0.00 | 54 | 1019.3 |
| 20260510150014 | 57 | 90 | 8.0 | 13.0 | 0.00 | 0.01 | 0.00 | 59 | 1018.9 |
| 20260510144521 | 55 | 84 | 7.0 | 13.0 | 0.00 | 0.01 | 0.00 | 65 | 1019.3 |
| 20260510143011 | 54 | 78 | 7.0 | 10.0 | 0.00 | 0.01 | 0.00 | 68 | 1019.9 |
| 20260510141510 | 53 | 62 | 6.0 | 9.0 | 0.00 | 0.01 | 0.00 | 74 | 1019.9 |
| 20260510140011 | 52 | 64 | 3.0 | 7.0 | 0.00 | 0.01 | 0.00 | 75 | 1019.4 |
| 20260510134508 | 52 | 48 | 4.0 | 8.0 | 0.00 | 0.01 | 0.00 | 75 | 1018.7 |
| 20260510133005 | 52 | 59 | 5.0 | 7.0 | 0.00 | 0.01 | 0.00 | 77 | 1018.2 |
| 20260510131504 | 52 | 66 | 2.0 | 7.0 | 0.00 | 0.01 | 0.00 | 77 | 1018.1 |
| 20260510130003 | 52 | 74 | 3.0 | 5.0 | 0.00 | 0.01 | 0.00 | 78 | 1018.2 |
| 20260510124606 | 53 | 56 | 1.0 | 5.0 | 0.00 | 0.01 | 0.00 | 76 | 1017.6 |
| 20260510123058 | 54 | 76 | 6.0 | 10.0 | 0.00 | 0.01 | 0.00 | 71 | 1017.1 |
| 20260510121554 | 54 | 72 | 5.0 | 7.0 | 0.00 | 0.01 | 0.00 | 72 | 1017.0 |
| 20260510120053 | 54 | 71 | 4.0 | 7.0 | 0.00 | 0.01 | 0.00 | 71 | 1016.2 |
| 20260510114550 | 55 | 61 | 3.0 | 11.0 | 0.00 | 0.01 | 0.00 | 69 | 1015.8 |
| 20260510113053 | 55 | 37 | 1.0 | 7.0 | 0.00 | 0.01 | 0.00 | 70 | 1015.5 |
| 20260510111543 | 58 | 13 | 3.0 | 13.0 | 0.00 | 0.01 | 0.00 | 61 | 1014.4 |
| 20260510110042 | 58 | 82 | 8.0 | 14.0 | 0.00 | 0.01 | 0.00 | 57 | 1014.2 |
| 20260510104541 | 58 | 65 | 10.0 | 15.0 | 0.00 | 0.01 | 0.00 | 60 | 1013.9 |
| 20260510103038 | 57 | 68 | 8.0 | 16.0 | 0.00 | 0.01 | 0.00 | 62 | 1013.9 |
| 20260510101536 | 57 | 56 | 9.0 | 16.0 | 0.00 | 0.01 | 0.00 | 63 | 1013.8 |
| 20260510100034 | 57 | 65 | 6.0 | 11.0 | 0.00 | 0.01 | 0.00 | 63 | 1013.8 |
| 20260510094535 | 57 | 71 | 5.0 | 11.0 | 0.00 | 0.01 | 0.00 | 65 | 1013.8 |
| 20260510093030 | 57 | 34 | 4.0 | 8.0 | 0.00 | 0.01 | 0.00 | 65 | 1013.7 |
| 20260510091531 | 58 | 46 | 4.0 | 8.0 | 0.00 | 0.01 | 0.00 | 65 | 1013.5 |
| 20260510090028 | 58 | 25 | 3.0 | 7.0 | 0.00 | 0.01 | 0.00 | 64 | 1013.8 |
| 20260510084527 | 59 | 5 | 2.0 | 11.0 | 0.00 | 0.01 | 0.00 | 62 | 1013.4 |
| 20260510083023 | 60 | 72 | 6.0 | 14.0 | 0.00 | 0.01 | 0.00 | 61 | 1013.1 |
| 20260510081523 | 59 | 84 | 8.0 | 16.0 | 0.00 | 0.01 | 0.00 | 62 | 1012.8 |
| 20260510080022 | 59 | 59 | 9.0 | 13.0 | 0.00 | 0.01 | 0.00 | 62 | 1012.5 |
| 20260510074522 | 60 | 61 | 10.0 | 18.0 | 0.00 | 0.01 | 0.00 | 62 | 1012.8 |
| 20260510073027 | 60 | 61 | 7.0 | 13.0 | 0.00 | 0.01 | 0.00 | 62 | 1012.6 |
| 20260510071518 | 59 | 82 | 9.0 | 14.0 | 0.00 | 0.01 | 0.00 | 63 | 1012.3 |
| 20260510070016 | 59 | 44 | 7.0 | 12.0 | 0.00 | 0.01 | 0.00 | 65 | 1012.2 |
| 20260510064535 | 58 | 55 | 2.0 | 7.0 | 0.00 | 0.01 | 0.00 | 68 | 1011.8 |
| 20260510063013 | 58 | 51 | 2.0 | 8.0 | 0.00 | 0.01 | 0.00 | 69 | 1011.7 |
| 20260510061511 | 58 | 51 | 3.0 | 7.0 | 0.00 | 0.01 | 0.00 | 69 | 1011.5 |
| 20260510060011 | 59 | 51 | 5.0 | 10.0 | 0.00 | 0.01 | 0.00 | 69 | 1011.2 |
| 20260510054507 | 59 | 58 | 4.0 | 7.0 | 0.00 | 0.01 | 0.00 | 70 | 1011.1 |
| 20260510053012 | 59 | 63 | 5.0 | 8.0 | 0.00 | 0.01 | 0.00 | 70 | 1010.6 |
| 20260510051502 | 60 | 45 | 5.0 | 8.0 | 0.00 | 0.01 | 0.00 | 68 | 1010.5 |
| 20260510044607 | 62 | 50 | 7.0 | 10.0 | 0.00 | 0.01 | 0.01 | 65 | 1010.2 |
| 20260510043057 | 63 | 66 | 5.0 | 8.0 | 0.00 | 0.01 | 0.01 | 64 | 1010.0 |
| 20260510041557 | 63 | 73 | 5.0 | 11.0 | 0.00 | 0.01 | 0.01 | 62 | 1009.7 |
| 20260510040056 | 64 | 90 | 5.0 | 11.0 | 0.00 | 0.01 | 0.01 | 62 | 1009.6 |
| 20260510034615 | 64 | 79 | 7.0 | 10.0 | 0.00 | 0.01 | 0.01 | 61 | 1009.4 |
| 20260510033059 | 64 | 78 | 6.0 | 9.0 | 0.00 | 0.01 | 0.01 | 63 | 1009.0 |
| 20260510031554 | 63 | 82 | 7.0 | 10.0 | 0.00 | 0.01 | 0.01 | 63 | 1008.7 |
| 20260510030054 | 64 | 83 | 4.0 | 6.0 | 0.00 | 0.01 | 0.01 | 61 | 1008.2 |
| 20260510024555 | 65 | 91 | 4.0 | 7.0 | 0.00 | 0.01 | 0.01 | 60 | 1007.6 |
| 20260510023052 | 66 | 88 | 6.0 | 9.0 | 0.00 | 0.01 | 0.01 | 58 | 1007.3 |
| 20260510021601 | 67 | 83 | 5.0 | 8.0 | 0.00 | 0.01 | 0.01 | 55 | 1006.8 |
| 20260510020052 | 67 | 74 | 6.0 | 10.0 | 0.01 | 0.01 | 0.01 | 54 | 1006.3 |
| 20260510014558 | 68 | 78 | 6.0 | 10.0 | 0.01 | 0.01 | 0.01 | 54 | 1006.3 |
| 20260510013100 | 69 | 96 | 8.0 | 16.0 | 0.01 | 0.01 | 0.01 | 53 | 1007.2 |
| 20260510011550 | 71 | 110 | 7.0 | 13.0 | 0.00 | 0.00 | 0.00 | 52 | 1007.3 |
| 20260510010049 | 72 | 92 | 5.0 | 9.0 | 0.00 | 0.00 | 0.00 | 45 | 1007.3 |
| 20260510004550 | 73 | 70 | 5.0 | 7.0 | 0.00 | 0.00 | 0.00 | 45 | 1006.8 |
| 20260510003102 | 74 | 9 | 0.0 | 12.0 | 0.00 | 0.00 | 0.00 | 42 | 1006.1 |
| 20260510001547 | 76 | 101 | 9.0 | 16.0 | 0.00 | 0.00 | 0.00 | 36 | 1005.8 |
| 20260510000057 | 79 | 234 | 0.0 | 1.0 | 0.00 | 0.00 | 0.00 | 30 | 1004.6 |
| 20260509234546 | 80 | 195 | 3.0 | 6.0 | 0.00 | 0.00 | 0.00 | 27 | 1003.8 |
| 20260509233044 | 81 | 131 | 2.0 | 7.0 | 0.00 | 0.00 | 0.00 | 26 | 1003.9 |
| 20260509231544 | 82 | 132 | 3.0 | 7.0 | 0.00 | 0.00 | 0.00 | 25 | 1004.1 |
| 20260509230043 | 83 | 136 | 2.0 | 8.0 | 0.00 | 0.00 | 0.00 | 23 | 1004.1 |
| 20260509224542 | 84 | 146 | 3.0 | 7.0 | 0.00 | 0.00 | 0.00 | 24 | 1004.2 |
| 20260509223042 | 86 | 130 | 3.0 | 9.0 | 0.00 | 0.00 | 0.00 | 22 | 1004.6 |
| 20260509221541 | 87 | 241 | 3.0 | 10.0 | 0.00 | 0.00 | 0.00 | 22 | 1004.7 |